This is the latest recevied weather packets stored in our database for station/object MB7UUE. If no packets are shown the sender has not sent any weather packets the latest 10 day(s).
| Time | Temp. | Humidity | Pressure | Rain* | Wind** | Luminosity | Snow |
|---|---|---|---|---|---|---|---|
| 1778100794 | 11.11° C | 66% | 1014.5 hPa | 0 mm | - | - | - |
| 1778099654 | 11.67° C | 63% | 1014.4 hPa | 0 mm | - | - | - |
| 1778098513 | 11.67° C | 63% | 1014.2 hPa | 0 mm | - | - | - |
| 1778097374 | 12.22° C | 64% | 1014 hPa | 0 mm | - | - | - |
| 1778096235 | 12.22° C | 64% | 1013.8 hPa | 0 mm | - | - | - |
| 1778095095 | 12.22° C | 63% | 1013.6 hPa | 0 mm | - | - | - |
| 1778093954 | 12.22° C | 63% | 1013.5 hPa | 0 mm | - | - | - |
| 1778092814 | 12.78° C | 62% | 1013.4 hPa | 0 mm | - | - | - |
| 1778091674 | 12.78° C | 62% | 1013.3 hPa | 0 mm | - | - | - |
| 1778090535 | 12.78° C | 61% | 1013.1 hPa | 0 mm | - | - | - |
| 1778089394 | 12.78° C | 61% | 1012.9 hPa | 0 mm | - | - | - |
| 1778088255 | 12.78° C | 58% | 1012.9 hPa | 0 mm | - | - | - |
| 1778087113 | 12.78° C | 58% | 1012.9 hPa | 0 mm | - | - | - |
| 1778085974 | 12.78° C | 58% | 1012.9 hPa | 0 mm | - | - | - |
| 1778084834 | 12.78° C | 58% | 1012.9 hPa | 0 mm | - | - | - |
| 1778083695 | 12.78° C | 57% | 1012.9 hPa | 0 mm | - | - | - |
| 1778082555 | 12.78° C | 56% | 1012.9 hPa | 0 mm | - | - | - |
| 1778081415 | 12.78° C | 56% | 1012.9 hPa | 0 mm | - | - | - |
| 1778080274 | 13.33° C | 56% | 1012.9 hPa | 0 mm | - | - | - |
| 1778079134 | 12.78° C | 57% | 1012.8 hPa | 0 mm | - | - | - |
| 1778077995 | 13.33° C | 56% | 1012.8 hPa | 0 mm | - | - | - |
| 1778076854 | 13.89° C | 56% | 1012.7 hPa | 0 mm | - | - | - |
| 1778075715 | 13.33° C | 58% | 1012.8 hPa | 0 mm | - | - | - |
| 1778074574 | 12.78° C | 58% | 1012.9 hPa | 0 mm | - | - | - |
| 1778073435 | 12.78° C | 59% | 1013 hPa | 0 mm | - | - | - |
* Rain latest hour (hover to see other rain measurements)
** Current wind speed in m/s (hover to see current wind gust speed)